Tracking 19920 objects as of 14-Oct-2019
HD Live streaming from Space Station
objects crossing your sky now

SL-8 DEB

Track SL-8 DEB now!
10-day predictions


NORAD ID: 18552
Int'l Code: 1986-086C
Perigee: 835.1 km
Apogee: 883.4 km
Inclination: 82.9 °
Period: 102.0 minutes
Semi major axis: 7230 km
RCS: 0.0125 m2 (small)
Launch date: November 13, 1986
Source: Commonwealth of Independent States (former USSR) (CIS)
Launch site: PLESETSK MISSILE AND SPACE COMPLEX (PKMTR)

Note: This is SATELLITE DEBRIS
aabbcc
Your satellite tracking list
Your tracking list is empty




NASA's NSSDC Master Catalog

Two Line Element Set (TLE):
1 18552U 86086C   19287.46138071  .00000577  00000-0  30386-3 0  9998
2 18552  82.9205 271.6606 0033359  41.0567  83.5222 14.12126879678119
Source of the keplerian elements: AFSPC